Joliet, IL

3:28 AM CDT on May 26, 2017 (GMT -0500)
Joliet Regional

Weather History for KJOT - February, 2013

Change the Weather History Date:

Sunday, February 17, 2013

  Actual Average (KARR) Record (KARR)
Temperature  
Mean Temperature 17 °F -  
Max Temperature 30 °F 34 °F 67 °F (2017)
Min Temperature 4 °F 20 °F 1 °F (2006)
Degree Days  
Heating Degree Days 48    
Moisture  
Dew Point 7 °F    
Average Humidity 63    
Maximum Humidity 88    
Minimum Humidity 33    
Precipitation  
Precipitation 0.00 in - - ()
Sea Level Pressure  
Sea Level Pressure 30.14 in    
Wind  
Wind Speed 2 mph (SSE)    
Max Wind Speed 9 mph    
Max Gust Speed -    
Visibility 10 miles    
Events      
Averages and records for this station are not official NWS values.
T = Trace of Precipitation, MM = Missing Value Source: NWS Daily Summary

Daily Weather History Graph

Daily Weather History Graph

Search for Another Location

Airport or City:

Trip Planner

Search our weather history database for the weather conditions in past years. The results will help you decide how hot, cold, wet, or windy it might be!

Date:

Astronomy

Feb. 17, 2013 Rise Set
Actual Time 6:44 AM CST 5:29 PM CST
Civil Twilight 6:16 AM CST 5:57 PM CST
Nautical Twilight 5:44 AM CST 6:29 PM CST
Astronomical Twilight 5:12 AM CST 7:02 PM CST
Moon 10:31 AM CST (2/17) 12:30 AM CST (2/17)
Length of Visible Light 11h 41m
Length of Day
10h 44m
Waxing Crescent, 49% of the Moon is Illuminated
Feb 17
Waxing Crescent
Feb 17
First Quarter
Feb 25
Full
Mar 4
Last Quarter
Mar 11
New

Hourly Weather History & Observations

Time (CST) Temp. Windchill Dew Point Humidity Pressure Visibility Wind Dir Wind Speed Gust Speed Precip Events Conditions
12:15 AM 10.2 °F - 3.2 °F 73% 30.18 in 10.0 mi Calm Calm - N/A   Clear
12:35 AM 9.0 °F - 3.6 °F 79% 30.18 in 10.0 mi Calm Calm - N/A   Clear
12:55 AM 8.6 °F - 3.4 °F 79% 30.18 in 10.0 mi Calm Calm - N/A   Clear
1:15 AM 8.4 °F - 5.0 °F 86% 30.18 in 10.0 mi Calm Calm - N/A   Clear
1:35 AM 6.3 °F - 3.4 °F 88% 30.17 in 10.0 mi Calm Calm - N/A   Clear
1:55 AM 7.2 °F - 3.9 °F 87% 30.18 in 10.0 mi Calm Calm - N/A   Clear
2:15 AM 9.5 °F - 4.6 °F 81% 30.18 in 10.0 mi Calm Calm - N/A   Clear
2:35 AM 6.6 °F - 3.0 °F 85% 30.18 in 10.0 mi Calm Calm - N/A   Clear
2:55 AM 5.5 °F - 2.5 °F 87% 30.17 in 10.0 mi Calm Calm - N/A   Clear
3:15 AM 7.3 °F - 4.5 °F 88% 30.17 in 10.0 mi Calm Calm - N/A   Clear
3:35 AM 6.6 °F - 3.2 °F 86% 30.17 in 10.0 mi Calm Calm - N/A   Clear
3:55 AM 8.6 °F - 4.8 °F 85% 30.17 in 10.0 mi Calm Calm - N/A   Clear
4:15 AM 6.4 °F - 3.4 °F 87% 30.18 in 10.0 mi Calm Calm - N/A   Clear
4:35 AM 5.2 °F - 1.9 °F 86% 30.19 in 10.0 mi Calm Calm - N/A   Clear
4:55 AM 6.1 °F - 3.0 °F 87% 30.19 in 10.0 mi Calm Calm - N/A   Clear
5:15 AM 5.5 °F - 1.8 °F 84% 30.19 in 10.0 mi Calm Calm - N/A   Clear
5:35 AM 5.0 °F - 1.9 °F 87% 30.20 in 10.0 mi Calm Calm - N/A   Clear
5:55 AM 5.4 °F - 2.5 °F 88% 30.20 in 10.0 mi Calm Calm - N/A   Clear
6:15 AM 4.8 °F - 1.8 °F 87% 30.20 in 10.0 mi Calm Calm - N/A   Clear
6:35 AM 5.0 °F - 1.8 °F 86% 30.20 in 10.0 mi Calm Calm - N/A   Clear
6:55 AM 5.2 °F - 1.2 °F 84% 30.20 in 10.0 mi Calm Calm - N/A   Clear
7:15 AM 7.9 °F - 4.3 °F 85% 30.20 in 10.0 mi Calm Calm - N/A   Clear
7:35 AM 10.2 °F - 6.8 °F 86% 30.21 in 10.0 mi Calm Calm - N/A   Clear
7:55 AM 13.3 °F - 7.3 °F 77% 30.21 in 10.0 mi Calm Calm - N/A   Clear
8:15 AM 15.1 °F - 5.0 °F 64% 30.21 in 10.0 mi Calm Calm - N/A   Clear
8:35 AM 16.3 °F - 3.4 °F 57% 30.21 in 10.0 mi Calm Calm - N/A   Clear
8:55 AM 16.7 °F - 2.1 °F 53% 30.21 in 10.0 mi Calm Calm - N/A   Clear
9:15 AM 17.8 °F - 2.5 °F 51% 30.21 in 10.0 mi Calm Calm - N/A   Clear
9:35 AM 17.8 °F - 1.0 °F 48% 30.21 in 10.0 mi Calm Calm - N/A   Clear
9:55 AM 19.6 °F - 3.7 °F 50% 30.21 in 10.0 mi Calm Calm - N/A   Clear
10:15 AM 19.6 °F - 2.5 °F 48% 30.21 in 10.0 mi Calm Calm - N/A   Clear
10:35 AM 20.8 °F - 0.9 °F 42% 30.20 in 10.0 mi Calm Calm - N/A   Clear
10:55 AM 21.6 °F 16.8 °F 1.2 °F 41% 30.21 in 10.0 mi ESE 3.5 mph - N/A   Clear
11:15 AM 22.6 °F 18.0 °F 1.9 °F 41% 30.21 in 10.0 mi SSW 3.5 mph - N/A   Clear
11:35 AM 23.7 °F 17.8 °F 2.8 °F 41% 30.21 in 10.0 mi WSW 4.6 mph - N/A   Clear
11:55 AM 25.0 °F 19.3 °F 4.8 °F 42% 30.20 in 10.0 mi SSW 4.6 mph - N/A   Clear
12:15 PM 25.5 °F - 3.6 °F 39% 30.19 in 10.0 mi Calm Calm - N/A   Clear
12:55 PM 27.0 °F 23.0 °F 1.2 °F 33% 30.18 in 10.0 mi South 3.5 mph - N/A   Clear
1:15 PM 28.0 °F 22.8 °F 3.0 °F 34% 30.17 in 10.0 mi SE 4.6 mph - N/A   Clear
1:35 PM 28.4 °F - 7.3 °F 41% 30.16 in 10.0 mi Calm Calm - N/A   Clear
1:55 PM 28.8 °F 23.7 °F 5.9 °F 38% 30.15 in 10.0 mi South 4.6 mph - N/A   Clear
2:15 PM 29.3 °F 23.2 °F 5.0 °F 36% 30.14 in 10.0 mi South 5.8 mph - N/A   Clear
2:35 PM 29.8 °F 24.9 °F 5.5 °F 36% 30.13 in 10.0 mi SSW 4.6 mph - N/A   Clear
2:55 PM 30.7 °F 24.9 °F 5.5 °F 35% 30.12 in 10.0 mi South 5.8 mph - N/A   Clear
3:15 PM 30.6 °F 23.8 °F 7.2 °F 37% 30.12 in 10.0 mi SSE 6.9 mph - N/A   Clear
3:35 PM 29.8 °F 22.2 °F 7.3 °F 39% 30.11 in 10.0 mi SSE 8.1 mph - N/A   Clear
3:55 PM 30.6 °F 23.1 °F 7.7 °F 38% 30.11 in 10.0 mi SSE 8.1 mph - N/A   Clear
4:15 PM 29.7 °F 22.8 °F 8.4 °F 41% 30.11 in 10.0 mi SSE 6.9 mph - N/A   Clear
4:35 PM 29.3 °F 23.2 °F 9.9 °F 44% 30.10 in 10.0 mi SSE 5.8 mph - N/A   Clear
4:55 PM 29.1 °F 23.0 °F 10.6 °F 46% 30.09 in 10.0 mi SSE 5.8 mph - N/A   Clear
5:15 PM 28.8 °F 20.9 °F 11.3 °F 48% 30.09 in 10.0 mi SSE 8.1 mph - N/A   Clear
5:35 PM 28.2 °F 22.0 °F 12.0 °F 51% 30.09 in 10.0 mi SSE 5.8 mph - N/A   Clear
5:55 PM 28.0 °F 22.8 °F 12.9 °F 53% 30.09 in 10.0 mi SSE 4.6 mph - N/A   Clear
6:15 PM 27.3 °F 20.9 °F 12.9 °F 55% 30.08 in 10.0 mi SE 5.8 mph - N/A   Clear
6:35 PM 27.0 °F 20.5 °F 13.8 °F 58% 30.08 in 10.0 mi SE 5.8 mph - N/A   Clear
6:55 PM 27.3 °F 19.9 °F 14.5 °F 59% 30.08 in 10.0 mi SE 6.9 mph - N/A   Clear
7:15 PM 27.0 °F 20.5 °F 14.9 °F 60% 30.07 in 10.0 mi SE 5.8 mph - N/A   Clear
7:35 PM 27.1 °F 20.7 °F 14.9 °F 60% 30.07 in 10.0 mi SE 5.8 mph - N/A   Clear
7:55 PM 27.1 °F 18.2 °F 15.4 °F 61% 30.06 in 10.0 mi SE 9.2 mph - N/A   Clear
8:15 PM 27.3 °F 19.9 °F 15.6 °F 61% 30.06 in 10.0 mi SE 6.9 mph - N/A   Clear
8:35 PM 27.3 °F 18.4 °F 16.2 °F 63% 30.05 in 10.0 mi SE 9.2 mph - N/A   Clear
8:55 PM 27.3 °F 19.1 °F 16.7 °F 64% 30.05 in 10.0 mi SSE 8.1 mph - N/A   Clear
9:15 PM 27.0 °F 19.5 °F 17.2 °F 67% 30.05 in 10.0 mi SE 6.9 mph - N/A   Clear
9:35 PM 26.8 °F 20.2 °F 17.2 °F 67% 30.05 in 10.0 mi SE 5.8 mph - N/A   Clear
9:55 PM 26.6 °F 22.6 °F 17.4 °F 68% 30.05 in 10.0 mi SSE 3.5 mph - N/A   Clear
10:15 PM 26.6 °F 18.2 °F 17.4 °F 68% 30.04 in 10.0 mi SE 8.1 mph - N/A   Clear
10:35 PM 27.1 °F 18.9 °F 17.4 °F 67% 30.03 in 10.0 mi SE 8.1 mph - N/A   Clear
10:55 PM 27.5 °F 19.3 °F 17.1 °F 65% 30.02 in 10.0 mi SSE 8.1 mph - N/A   Clear
11:15 PM 27.5 °F 19.3 °F 17.4 °F 66% 30.01 in 10.0 mi SSE 8.1 mph - N/A   Clear
11:35 PM 27.5 °F 19.3 °F 17.8 °F 67% 30.01 in 10.0 mi SE 8.1 mph - N/A   Clear
11:55 PM 27.5 °F 19.3 °F 18.3 °F 68% 30.00 in 10.0 mi SSE 8.1 mph - N/A   Clear